Location: Zagreb
(45.8000°N, 16.0000°E)
Time: 15:00:36
(UTC+02:00)

Transit 2A - Pass Details

Date: 13 August 2022
Orbit: 601 x 956 km, 66.7° (Epoch: 25 September)

Event Time Altitude Azimuth Distance (km) Brightness Sun altitude
Rises 19:54:41 0° 332° (NNW) 2,860 9.8 1.3°
Reaches altitude 10° 19:57:03 10° 341° (NNW) 1,956 8.8 0.9°
Maximum altitude 20:01:08 38° 50° (NE) 951 6.3 0.2°
Drops below altitude 10° 20:05:20 10° 119° (ESE) 2,022 7.6 -0.5°
Enters shadow 20:07:47 - 127° (SE) 2,956 8.4 -0.8°
Sets 20:07:49 0° 127° (SE) 2,971 - -0.9°
